Hourly Data Report for April 28, 2004

SHERBROOKE A
QUEBEC

45°26'00.000" N
71°41'00.000" W
241.40 m
7028124
71610
YSC

Download Data

Hourly Data (April 2004)
Hourly Data Report for April 28, 2004
TIME
LST
Temp Definition
°C
Dew Point Definition
°C
Rel Hum Definition
%
Precip. Amount Definition
mm

Wind Dir Definition
10's deg

Wind Spd Definition
km/h
Visibility Definition
km
Stn Press Definition
kPa
Hmdx Definition


Wind Chill Definition


Weather Definition


00:00 3.4 0.5 81   25 6 15.0 97.80      
01:00 2.8 0.5 85   28 6 15.0 97.79      
02:00 3.4 0.7 82   29 11 15.0 97.84      
03:00 3.0 0.5 84   30 7 15.0 97.90      
04:00 2.5 0.0 84   32 9 15.0 97.99      
05:00 1.6 -2.7 73   33 9 15.0 98.12      
06:00 1.5 -3.4 70   33 15 15.0 98.26      
07:00 1.9 -3.6 67   34 11 24.1 98.35     Mostly Cloudy
08:00 2.0 -3.9 65   32 13 24.1 98.42     Snow Showers
09:00 2.7 -3.3 65   30 11 24.1 98.48     Snow Showers
10:00 3.9 -3.0 61   30 15 24.1 98.50     Mostly Cloudy
11:00 2.5 -3.0 67   28 17 19.3 98.55     Snow Showers
12:00 2.9 -3.8 61   28 22 24.1 98.63     Snow Showers
13:00 3.6 -4.0 58   27 28 24.1 98.69     Mostly Cloudy
14:00 5.1 -5.3 47   29 28 24.1 98.73     Mostly Cloudy
15:00 7.2 -5.5 40   30 22 24.1 98.76     Mainly Clear
16:00 6.1 -7.0 38   30 22 24.1 98.81     Mostly Cloudy
17:00 7.3 -6.5 37   29 13 15.0 98.85      
18:00 6.4 -6.9 38   26 17 15.0 98.95      
19:00 5.2 -6.7 42   25 13 15.0 99.05      
20:00 2.8 -6.4 51   21 9 15.0 99.15      
21:00 2.0 -6.3 54   22 6 15.0 99.18      
22:00 1.1 -6.3 58   22 6 15.0 99.22      
23:00 -2.2 -6.2 74     0 15.0 99.25      

Notes on Data Quality.

Legend

  • E = Estimated
  • M = Missing
  • NA = Not Available*
  • [empty] = Indicates an unobserved value
Date modified: